sat.trackr.live / text

‹ back to catalog

STARLINK-33692

NORAD 63408 · 2025-065K

PAYLOAD ACTIVE UNKNOWN

§ Identity

Operator
Country
US
Launch date
2025-03-31
Launch site
AFETR
Launch vehicle
Mass (kg)
RCS (m²)

Purposes: comms

External: N2YO · Heavens-Above · Gunter

§ Orbital elements

Epoch: 2026-05-25T02:43:12.785088Z

Period
94.27 min
Inclination
43.0013°
Eccentricity
0.0001656
Mean motion
15.27592162 rev/d
Perigee alt
481.9 km
Apogee alt
484.1 km
Semi-major
6,861.1 km
B*
8.2258e-4
RAAN
39.3005°
Arg perigee
263.0063°
Mean anomaly
97.0600°
Rev number
6,448

§ Raw data

STARLINK-336921 63408U 25065K   26145.11334242  .00022451  00000+0  82258-3 0  99982 63408  43.0013  39.3005 0001656 263.0063  97.0600 15.27592162 64486

JSON: /api/v1/satellites/63408 · /tle

For live sub-satellite position, see the globe view (requires WebGL).

§ Visibility from observer

Set your observer location to see the next 7 days of passes ≥ 10°. The values pass through the URL so the page stays shareable.

No JS? Fill the form by hand. The geolocation button needs JavaScript.